Regional Weather Roundup
Issued by NWS Charleston, SC

Current Version | Previous Version | Text Only | Print | Product List | Glossary Off
Versions: 1 2 3 4 5 6 7 8 9 10 11 12 13 14 15 16 17 18 19 20 21 22 23 24 25 26 27 28 29 30 31 32 33 34 35 36 37 38 39 40 41 42 43 44 45 46 47 48 49 50

000
ASUS42 KCHS 290125
RWRCHS

REGIONAL WEATHER ROUNDUP
NATIONAL WEATHER SERVICE CHARLESTON SC
900 PM EDT MON JUL 28 2014

NOTE: "FAIR" INDICATES FEW OR NO CLOUDS BELOW 12,000 FEET WITH NO
SIGNIFICANT WEATHER AND/OR OBSTRUCTIONS TO VISIBILITY.

NOT ALL STATIONS ARE QUALITY CONTROLLED BY THE NATIONAL
WEATHER SERVICE. USE DATA WITH CAUTION...ESPECIALLY
DEWPOINT OBSERVATIONS.

SCZ027-030-031-034>040-042>050-290200-
...SOUTH CAROLINA...

CITY           SKY/WX    TMP DP  RH WIND       PRES   REMARKS
N CHARLESTON   PTCLDY    86  75  69 SW7       29.82R HX  95
WATERFRONT PRK   N/A     86 N/A N/A SW6         N/A
FORT JOHNSON   NOT AVBL
MOUNT PLEASANT FAIR      86  75  70 CALM      29.82R HX  95
JOHNS ISLAND   PTCLDY    84  72  65 CALM      29.83R
PINOPOLIS        N/A     88  75  66 SW12      29.74R HX  97
MONCKS CORNER    N/A     82  73  74 SW5       29.81S
SUMMERVILLE    FAIR      73  73 100 CALM      29.83S
BEAUFORT MCAS  MOCLDY    84  76  76 W7        29.83R HX  93
BEAUFORT ARPT  FAIR      81  77  89 W5        29.83S
HILTON HEAD IS PTCLDY    86  73  66 SW7       29.85R HX  93
GEORGETOWN     NOT AVBL
WALTERBORO     CLEAR     81  70  69 W6        29.84R
ORANGEBURG     CLEAR     85  66  53 W3        29.83R
BARNWELL       FAIR      86  70  58 W5        29.86R HX  90
AIKEN          FAIR      82  63  51 NW3       29.90R
MANNING        FAIR      81  75  83 CALM      29.81R
KINGSTREE      NOT AVBL
COLUMBIA       PTCLDY    88  61  40 NW7       29.84R
SUMTER         CLEAR     85  64  48 N10       29.82R
FLORENCE       NOT AVBL
MYRTLE BEACH   PTCLDY    75  70  83 NE7       29.81R
N MYRTLE BEACH MOCLDY    76  73  91 CALM      29.79S

$$

GAZ063-065-086>088-099>101-113>116-118-119-134-136>141-150-290200-
...GEORGIA...

CITY           SKY/WX    TMP DP  RH WIND       PRES   REMARKS
SAVANNAH ARPT  MOCLDY    86  69  56 W6        29.85R HX  90
HUNTER AAF     MOCLDY    85  73  67 W6        29.82S HX  91
FORT STEWART   MOCLDY    78  75  92 CALM      29.84S
STATESBORO     NOT AVBL
SYLVANIA       MOCLDY    79  77  95 W5        29.88S
CLAXTON        FAIR      79  79 100 CALM      29.86S
THOMSON        CLEAR     82  69  66 NW3       29.93R
AUGUSTA-BUSH   CLEAR     85  62  46 N10       29.85R
AUGUSTA-DANIEL CLEAR     88  59  37 NW9       29.87R
SWAINSBORO     FAIR      79  79 100 CALM      29.89S
VIDALIA          N/A     84  72  65 W6        29.88R
ALMA           NOT AVBL
WAYCROSS       CLOUDY    87  69  55 W5        29.89R HX  91
JESUP          FAIR      90  73  58 W6        29.87R HX  98
BRUNSWICK      CLOUDY    90  72  55 SW8       29.87R HX  96
SAINT SIMONS   CLOUDY    89  75  63 SW12      29.86S HX  99

$$

SCZ027-028-034-036>038-045-046-048>050-GAZ119-141-290200-
...LAKE AND SUPPLEMENTAL COASTAL OBSERVATIONS...

STATION/POSITION TIME  TEMP    WIND        PRES    WAVE   SWELL
                       AIR SEA DIR/SP/G            HT/PER HT/PER/DIR
                 (UTC) (F)     (DEG/KT/KT) (MB)    (FT/S) (FT/S/D)
UPR LAKE MARION  NOT AVBL
WINYAH BAY       0100   80     310/  2     1009.0S
LAKE MURRAY      0100   84     330/  3/  8 1010.2S
ACE BASIN NERRS  0100   83        CALM     1010.0S
FORT PULASKI     0100   88     260/  5/  6 1010.6F
SAPELO ISLAND    0100   89     230/  9     1011.0S

$$

ANZ835-935-AMZ111-154-330-350-352-354-374-450-454-472-290200-
...C-MAN AND BUOY OBSERVATIONS...

STATION/POSITION TIME  TEMP    WIND        PRES    WAVE   SWELL
                       AIR SEA DIR/SP/G            HT/PER HT/PER/DIR
                 (UTC) (F)     (DEG/KT/KT) (MB)    (FT/S) (FT/S/D)
FOLLY BEACH CMAN 0100   86     230/  8/ 11 1010.2R
BUOY 41004       0100   85 84  220/ 17/ 21 1008.5R   5/ 5   2/ 9
BUOY 41008       0100   87 85  200/ 10/ 12 1010.3F   2/ 3   2/100/ 9
5E ST. MARYS GA  0100      85                N/A     2/ 9
FRYING PAN BUOY  NOT AVBL
BUOY 41025       0100          VRB 12/ 16  1008.7S   4/ 8   3/160/ 8
CAPE LOOKOUT NC  0100   78     260/ 10/ 11 1008.8F
BUOY 41002       0015   82 81  230/ 17/ 21 1013.7R   6/ 8   3/240/ 8
BUOY 41010       0100   84 84  190/ 16/ 17 1014.6S   3/ 6   2/110/ 8
BUOY 41012       NOT AVBL
ST AUGUSTINE FL  0100   81     220/  5/  6 1014.0R
CAPERS NEARSHORE 0000   85     230/ 16/ 21   N/A
FRIPP NEARSHORE  NOT AVBL


$$


USA.gov is the U.S. government's official web portal to all federal, state and local government web resources and services.